User: anonymous   Login
Location: Voyageurs National Park
(48.5020°N, 92.9292°W)
Time: 10:12:57
(UTC-05:00)
Language:

Terra - Orbit

View from above orbital plane
View from above orbital plane
View from above satellite
View from above satellite

Ground track
Ground track

The orbit data is extracted from the following two-line orbital elements,

1 25994U 99068A   17112.85720421 +.00000035 +00000-0 +17745-4 0  9998
2 25994 098.2113 188.6833 0000888 094.0180 266.1092 14.57106098922615
Epoch (UTC): 22 April 2017 20:34:22
Eccentricity: 0.0000888
inclination: 98.2113°
perigee height: 702 km
apogee height: 703 km
right ascension of ascending node: 188.6833°
argument of perigee: 94.0180°
revolutions per day: 14.57106098
mean anomaly at epoch: 266.1092°
orbit number at epoch: 92261

The dashed part of the orbit path shows where the satellite is in the earth's shadow,  

DLR